Weather in Papeete

French Polynesia     17°32′21″S   149°33′24″W
temp.,
°C
wind,
m/s
gust,
m/s
humid.,
%
clouds,
%
prec.,
mm/h
press.,
hPa
HPBL,
m
16 may, sun
sun1623:00+26ese8870100 0.0 10161010
02:00+26se7773100 0.1 1015908
05:00+26se897498 1.0 1014876
08:00+26ese99755 1.1 1016843
11:00+26ese887816 0.3 1016906
14:00+26ese777824 0.7 1013747
17:00+26ese777872 1.7 1013725
20:00+26ese91079100 3.1 1015757
17 may, mon
mon1723:00+26ese91080100 0.8 1015830
02:00+26ese91081100 1.9 1013777
05:00+25ese10118090 3.3 1014752
08:00+26ese13147993 5.1 1015792
11:00+26e121380100 0.9 1015965
14:00+26e9979100 2.2 1013879
17:00+26ese111180100 2.1 1013850
20:00+26ese111179100 3.4 1015809
18 may, tue
tue1823:00+25ese121281100 2.3 1015842
02:00+25ese121381100 4.6 1014912
05:00+26ese121278100 1.4 1014944
08:00+26ese121273100 2.7 1016977
11:00+26ese121379100 0.1 1015904
14:00+25ese12128099 0.9 1014886
17:00+26e12128084 0.6 1014869
20:00+26e12128037 1.3 1015914
19 may, wed
wed1923:00+26e11128196 0.7 1015890
02:00+25e12128181 1.2 1014922
05:00+25e12138052 0.8 1014963
08:00+25e13138156 1.4 1016909
11:00+25ese12138265 0.6 1015849
14:00+25e12128395 1.2 1013834
17:00+25e12138278 0.7 1013887
20:00+26ese12127892 1.6 10151012
20 may, thu
thu2023:00+26ese11117390 0.1 1014968
02:00+25ese11117151 0.1 1013900
05:00+25ese11117293 0.0 1013896
08:00+25e11117197 0.0 1015906
11:00+25e11117329 0.0 1014790
14:00+25ese10106891 0.0 1012760
17:00+25e10970100 0.0 1012761
20:00+26e987219 0.0 1014880